Regional Weather Roundup
Issued by NWS

Home | Current Version | Previous Version | Text Only | Print | Product List | Glossary Off
Versions: 1 2 3 4 5 6 7 8 9 10 11 12 13 14 15 16 17 18 19 20 21 22 23 24 25 26 27 28 29 30 31 32 33 34 35 36 37 38 39 40 41 42 43 44 45 46 47 48 49 50

454
ASUS43 KDTX 050310
RWRMI
MICHIGAN HOURLY REGIONAL WEATHER ROUNDUP
NATIONAL WEATHER SERVICE DETROIT/PONTIAC MI
1100 PM EDT WED MAY 04 2016

NOTE: "FAIR" INDICATES FEW OR NO CLOUDS BELOW 12,000 FEET WITH NO
SIGNIFICANT WEATHER AND/OR OBSTRUCTION TO VISIBILITY.

MIZ047>049-052>055-059>063-066>070-074>076-081>083-050400-
SOUTHEAST LOWER MICHIGAN

CITY           SKY/WX    TMP DP  RH WIND       PRES   REMARKS
ADRIAN         CLOUDY    43  40  89 NW5       29.72R
ALMA           CLOUDY    46  44  95 N9        29.78R
ANN ARBOR      CLOUDY    46  42  86 NW5       29.71R
BAD AXE        PTCLDY    43  41  92 N8        29.78R
CARO           PTCLDY    45  42  90 N7        29.75S
DETROIT CITY   CLOUDY    49  47  93 E5        29.72R
DETROIT        LGT RAIN  49  46  90 NW3       29.71R
FLINT          CLOUDY    50  45  83 N12       29.75R HAZE
GROSSE ILE     LGT RAIN  50  46  87 CALM      29.69S
HILLSDALE      CLOUDY    40  37  91 CALM      29.71R
HOWELL         RAIN      47  46  98 CALM      29.71S

CITY           SKY/WX    TMP DP  RH WIND       PRES   REMARKS
JACKSON        CLOUDY    43  41  93 CALM      29.71R
LAMBERTVILLE   CLOUDY    46  42  86 CALM      29.72R
LANSING        LGT RAIN  49  46  90 NE13G23   29.74R
LAPEER         FAIR      48  46  93 N3        29.74S
MASON          LGT RAIN  45  44  94 NE3       29.73R
MONROE         CLOUDY    47  44  87 NW7       29.71R
PONTIAC        CLOUDY    49  47  93 NE9       29.72R
PORT HOPE        N/A     43  40  89 NW10      29.77R
PORT HURON     CLOUDY    46  45  93 CALM      29.73S
TRI CITIES     MOCLDY    48  44  86 N15       29.77R
MIDLAND        CLOUDY    46  44  93 N8        29.79R
TROY           CLOUDY    50  49  97 N5        29.74R
SAGINAW HB     MOCLDY    46  45  93 N7        29.76R
$$
MIZ043>046-050>051-056>058-064>065-071>073-077>080-050400-
SOUTHWEST LOWER MICHIGAN

CITY           SKY/WX    TMP DP  RH WIND       PRES   REMARKS
BATTLE CREEK   CLOUDY    45  44  97 NE9       29.71R
BENTON HARBOR  CLOUDY    41  38  89 NW10G23   29.79R
BIG RAPIDS     CLOUDY    42  38  85 N10G18    29.82R
COLDWATER      LGT RAIN  42  42  99 SE3       29.70R
FREMONT        DRIZZLE   41  39  93 N13G18    29.82R
HOLLAND        CLOUDY   N/A N/A N/A N8G21     29.79R
GRAND RAPIDS   LGT RAIN  45  42  89 N16       29.76R
IONIA          DRIZZLE   45  44  96 N20G25    29.75R
KALAMAZOO      LGT RAIN  44  40  85 N14       29.72R FOG
LUDINGTON      CLOUDY    41  35  80 N17G23    29.87S
MARSHALL       CLOUDY    43  41  93 NE5       29.71R
MOUNT PLEASANT CLOUDY    45  43  94 N10G17      N/A
MUSKEGON       CLOUDY    42  36  79 N13       29.83R
SOUTH HAVEN    CLOUDY    41  40  95 N13G23    29.78R
$$
MIZ016>042-050400-
NORTHERN LOWER MICHIGAN

CITY           SKY/WX    TMP DP  RH WIND       PRES   REMARKS
ALPENA         CLOUDY    44  41  89 NW12      29.83R
BEAVER ISLAND  CLOUDY    41  35  78 N9        29.91S
BELLAIRE       CLOUDY    44  35  69 N6        29.88S
CADILLAC       CLOUDY    39  36  87 N12       29.84R WCI  32
CHARLEVOIX     CLOUDY    41  36  81 N8        29.92S
FRANKFORT      CLOUDY    41  35  80 N9G20     29.90R
GAYLORD        CLOUDY    43  38  82 VRB5      29.85R
GRAYLING       CLOUDY    43  41  93 N6        29.86R
HARBOR SPRINGS CLOUDY    44  37  74 CALM      29.88R
HOUGHTON LAKE  CLOUDY    42  40  92 N12       29.84R
MANISTEE       CLOUDY    43  30  61 N9G18     29.89R
OSCODA         CLOUDY    46  42  85 NW9       29.79R
PELLSTON       CLOUDY    45  37  73 N7        29.89R
ROGERS CITY    MOCLDY    42  39  91 NW8       29.86S
TRAVERSE CITY  CLOUDY    44  34  67 N9G18     29.88R
$$
MIZ007>008-015-050400-
EASTERN UPPER MICHIGAN

CITY           SKY/WX    TMP DP  RH WIND       PRES   REMARKS
KINROSS          N/A     43  43 100 N6        29.88S
MACKINAC ISLAN CLOUDY    42  38  84 N12       29.88R
NEWBERRY       CLOUDY    39  34  80 NW7       29.91S WCI  34
S. S. MARIE    CLOUDY    45  38  76 N6        29.88S
MUNISING         N/A     39  35  86 NW7       29.96R WCI  34
$$
MIZ004>006-011>014-085-050400-
CENTRAL UPPER MICHIGAN

CITY           SKY/WX    TMP DP  RH WIND       PRES   REMARKS
MANISTIQUE     CLEAR     36  32  86 NW8       29.94R WCI  29
ESCANABA       CLEAR     37  28  70 N3        29.97R
MENOMINEE      CLEAR     39  30  70 N8        29.98S WCI  34
SAWYER-GWINN   CLEAR     36  30  80 N8        29.95F WCI  29
$$
MIZ001>003-009>011-084-050400-
WESTERN UPPER MICHIGAN

CITY           SKY/WX    TMP DP  RH WIND       PRES   REMARKS
IRON MOUNTAIN  CLEAR     38  29  70 N7        29.95F WCI  33
HOUGHTON       CLEAR     34  30  85 N5        29.99S WCI  30
COPPER HARBOR    N/A     38  34  85 N9        30.00R WCI  31
IRONWOOD       CLEAR     37  30  75 CALM      29.96F
$$

ABBREVIATIONS USED IN REMARKS
   TC - TEMPERATURE IN CELSIUS
  WCI - WIND CHILL INDEX
   HX - HEAT INDEX
  VSB - VISIBILITY





USA.gov is the U.S. government's official web portal to all federal, state and local government web resources and services.